Location: Noordwijk
(52.2400°N, 4.4500°E)
Time: 06:57:08
(UTC+00:00)

PCSat - Visible Passes

Search period start: 07 December 2022 00:00
Search period end: 17 December 2022 00:00
Orbit: 785 x 793 km, 67.1° (Epoch: 06 December)

Date Brightness Start Highest point End Pass type
(mag) Time Alt. Az. Time Alt. Az. Time Alt. Az.
07 Dec 9.8 18:05:02 10° SSW 18:10:07 49° ESE 18:10:07 49° ESE visible
07 Dec 11.6 19:48:36 10° WSW 19:50:50 23° W 19:50:50 23° W visible
08 Dec 10.1 17:34:11 10° S 17:39:08 38° ESE 17:40:18 34° E visible
08 Dec 10.7 19:17:09 10° WSW 19:21:01 41° W 19:21:01 41° W visible
09 Dec 10.5 17:03:29 10° S 17:08:05 29° ESE 17:10:24 21° ENE visible
09 Dec 9.8 18:45:46 10° SW 18:51:08 63° NW 18:51:08 63° NW visible
09 Dec 12.4 20:31:16 10° WNW 20:31:50 12° WNW 20:31:50 12° WNW visible
10 Dec 10.8 16:32:57 10° SSE 16:37:04 23° ESE 16:40:27 13° ENE visible
10 Dec 9.6 18:14:28 10° SW 18:19:54 79° NW 18:21:09 54° NNE visible
10 Dec 11.9 19:59:34 10° W 20:01:52 20° WNW 20:01:52 20° WNW visible
11 Dec 9.5 17:43:16 10° SSW 17:48:41 83° SE 17:51:08 34° NE visible
11 Dec 11.2 19:27:55 10° W 19:31:50 29° NW 19:31:50 29° NW visible
12 Dec 9.6 17:12:10 10° SSW 17:17:31 65° ESE 17:21:02 22° NE visible
12 Dec 10.8 18:56:19 10° W 19:01:17 35° NW 19:01:45 34° NNW visible
13 Dec 9.9 16:41:11 10° SSW 16:46:23 50° ESE 16:50:54 14° NE visible
13 Dec 10.5 18:24:47 10° WSW 18:29:55 42° NW 18:31:37 33° N visible
13 Dec 12.2 20:10:53 10° WNW 20:12:19 15° NW 20:12:19 15° NW visible
14 Dec 10.2 16:10:19 10° S 16:15:18 39° ESE 16:20:18 10° NE visible
14 Dec 10.2 17:53:19 10° WSW 17:58:36 51° NW 18:01:26 26° NNE visible
14 Dec 11.7 19:39:10 10° WNW 19:42:07 20° NW 19:42:07 20° NW visible
15 Dec 9.9 17:21:56 10° SW 17:27:18 63° NW 17:31:13 19° NNE visible
15 Dec 11.4 19:07:27 10° WNW 19:11:44 23° NNW 19:11:54 23° NNW visible
16 Dec 9.7 16:50:38 10° SW 16:56:03 78° NW 17:00:58 13° NE visible
16 Dec 11.1 18:35:45 10° W 18:40:16 26° NNW 18:41:39 23° N visible
16 Dec 12.4 20:22:01 10° NW 20:22:21 11° NW 20:22:21 11° NW visible
